Weather reports worldwide

Advertisment
Hereford/Credenhill, United Kingdom (3522): temperature & dewpoint: 16.05.2018 16:00:00 - 22.05.2018 16:00:00 (BST)Hereford/Credenhill, United Kingdom (3522): temperature -20cm & temperature -100cm: 16.05.2018 16:00:00 - 22.05.2018 16:00:00 (BST)Hereford/Credenhill, United Kingdom (3522): wind speed: 16.05.2018 16:00:00 - 22.05.2018 16:00:00 (BST)Hereford/Credenhill, United Kingdom (3522): wind direction: 16.05.2018 16:00:00 - 22.05.2018 16:00:00 (BST)Hereford/Credenhill, United Kingdom (3522): reduced air pressure: 16.05.2018 16:00:00 - 22.05.2018 16:00:00 (BST)Hereford/Credenhill, United Kingdom (3522): visibility: 16.05.2018 16:00:00 - 22.05.2018 16:00:00 (BST)Hereford/Credenhill, United Kingdom (3522): precipitation: 16.05.2018 16:00:00 - 22.05.2018 16:00:00 (BST)
Date & Time tt [°C] td [°C] tt -20cm [°C] tt -100cm [°C] ff [km/h] ff [kn] dd ppp [hPa] vv [km] rr [mm]
22.05.2018 16:00:00 20,6 8,9 - - 13 7 NE 1019,0 12 0,0
22.05.2018 15:00:00 20,3 9,8 - - 13 7 NNE 1019,1 13 0,0
22.05.2018 14:00:00 19,2 9,4 - - 11 6 NNE 1019,3 13 0,0
22.05.2018 13:00:00 19,1 10,5 - - 11 6 NE 1019,3 11 0,0
22.05.2018 12:00:00 18,4 10,5 - - 15 8 NNE 1019,2 11 0,0
22.05.2018 11:00:00 17,0 10,1 - - 11 6 N 1019,3 10 0,0
22.05.2018 10:00:00 16,5 10,2 13,2 10,7 13 7 NNE 1019,2 10 0,0
22.05.2018 09:00:00 14,3 9,4 - - 9 5 N 1019,3 11 0,0
22.05.2018 08:00:00 12,9 9,1 - - 5 3 NNW 1018,9 12 0,0
22.05.2018 07:00:00 13,2 9,2 - - 4 2 NW 1018,3 12 0,0
22.05.2018 06:00:00 12,3 8,9 - - 5 3 NW 1017,9 14 0,0
22.05.2018 05:00:00 12,3 8,8 - - 8 4 WNW 1017,7 14 0,0
22.05.2018 04:00:00 12,6 8,8 - - 4 2 NNW 1017,5 14 0,0
22.05.2018 03:00:00 12,6 8,7 - - 5 3 W 1017,5 13 0,0
22.05.2018 02:00:00 12,8 8,4 - - 4 2 S 1017,6 12 0,0
22.05.2018 01:00:00 13,3 8,0 - - 9 5 W 1017,5 13 0,0
22.05.2018 00:00:00 14,2 7,1 - - 8 4 WNW 1017,6 13 0,0
21.05.2018 23:00:00 15,0 7,1 - - 4 2 NW 1017,7 14 0,0
21.05.2018 22:00:00 16,0 10,6 - - 8 4 WNW 1017,3 10 0,0
21.05.2018 21:00:00 17,0 11,3 - - 13 7 NE 1016,7 11 0,0
21.05.2018 20:00:00 19,7 10,7 - - 5 3 N 1015,7 12 0,0
21.05.2018 19:00:00 19,2 11,2 - - 9 5 ENE 1015,8 9 0,0
21.05.2018 18:00:00 22,0 8,9 - - 9 5 NNE 1015,4 13 0,0
21.05.2018 17:00:00 22,6 10,0 - - 11 6 NW 1015,6 14 0,0
21.05.2018 16:00:00 23,5 11,8 - - 5 3 ESE 1016,0 12 0,0
21.05.2018 15:00:00 22,0 8,5 - - 5 3 E 1016,4 13 0,0
21.05.2018 14:00:00 21,3 9,0 - - 8 4 NNE 1016,9 14 0,0
21.05.2018 13:00:00 20,5 9,0 - - 5 3 N 1017,1 14 0,0
21.05.2018 12:00:00 19,8 8,5 - - 5 3 NNE 1017,5 18 0,0
21.05.2018 11:00:00 19,1 10,8 - - 5 3 ENE 1017,8 11 0,0
21.05.2018 10:00:00 16,9 10,3 12,7 10,7 5 3 E 1018,2 9 0,0
21.05.2018 09:00:00 14,8 11,1 - - 5 3 ENE 1018,6 9 0,0
21.05.2018 08:00:00 10,9 10,3 - - 4 2 S 1018,7 8 0,0
21.05.2018 07:00:00 8,1 8,1 - - 4 2 W 1018,7 7 0,0
21.05.2018 06:00:00 6,0 6,0 - - 2 1 SW 1018,8 1,0 0,0
21.05.2018 05:00:00 5,7 5,4 - - 0 0 N 1018,6 2,5 0,0
21.05.2018 04:00:00 6,2 5,7 - - 2 1 W 1018,8 4,6 0,0
21.05.2018 03:00:00 6,9 6,2 - - 2 1 SW 1019,0 3,9 0,0
21.05.2018 02:00:00 8,3 7,7 - - 2 1 NW 1019,1 8 0,0
21.05.2018 01:00:00 9,7 8,3 - - 4 2 WNW 1019,4 13 0,0
21.05.2018 00:00:00 10,4 8,8 - - 2 1 NW 1019,4 11 0,0
20.05.2018 23:00:00 11,7 9,3 - - 2 1 NNE 1019,4 12 0,0
20.05.2018 22:00:00 13,2 9,3 - - 2 1 W 1019,3 11 0,0
20.05.2018 21:00:00 15,0 10,1 - - 2 1 WSW 1019,1 13 0,0
20.05.2018 20:00:00 17,4 10,9 - - 0 0 N 1018,9 15 0,0
20.05.2018 19:00:00 20,6 10,8 - - 4 2 SSW 1018,9 21 0,0
20.05.2018 18:00:00 21,2 8,2 - - 5 3 S 1019,1 21 0,0
20.05.2018 17:00:00 21,9 8,4 - - 5 3 SSE 1019,5 20 0,0
20.05.2018 16:00:00 22,4 9,4 - - 4 2 SE 1020,0 21 0,0
20.05.2018 15:00:00 22,2 10,0 - - 8 4 SE 1020,6 20 0,0
20.05.2018 14:00:00 22,3 9,2 - - 5 3 S 1021,0 19 0,0
20.05.2018 13:00:00 21,0 8,4 - - 8 4 S 1021,5 18 0,0
20.05.2018 12:00:00 19,3 9,2 - - 5 3 SE 1021,9 20 0,0
20.05.2018 11:00:00 19,3 9,7 - - 5 3 SE 1022,2 22 0,0
20.05.2018 10:00:00 18,1 10,4 12,4 10,7 5 3 E 1022,7 25 0,0
20.05.2018 09:00:00 15,0 9,5 - - 4 2 ESE 1022,9 21 0,0
20.05.2018 08:00:00 11,1 9,2 - - 2 1 E 1023,1 15 0,0
20.05.2018 07:00:00 7,8 7,8 - - 2 1 SSW 1023,0 8 0,0
20.05.2018 06:00:00 5,8 5,8 - - 4 2 SSW 1022,9 2,5 0,0
20.05.2018 05:00:00 5,3 5,2 - - 2 1 E 1022,9 2,4 0,0
20.05.2018 04:00:00 5,5 5,2 - - 0 0 N 1022,8 2,0 0,0
20.05.2018 03:00:00 6,4 6,0 - - 2 1 SW 1022,8 3,1 0,0
20.05.2018 02:00:00 6,8 6,3 - - 0 0 N 1022,9 3,8 0,0
20.05.2018 01:00:00 8,1 7,5 - - 0 0 N 1022,9 10 0,0
20.05.2018 00:00:00 9,0 7,6 - - 4 2 W 1022,9 10 0,0
19.05.2018 23:00:00 10,3 8,0 - - 2 1 WSW 1022,8 9 0,0
19.05.2018 22:00:00 12,0 8,2 - - 8 4 W 1022,6 11 0,0
19.05.2018 21:00:00 14,2 8,5 - - 2 1 SW 1022,2 13 0,0
19.05.2018 20:00:00 17,7 9,4 - - 2 1 WSW 1021,9 13 0,0
19.05.2018 19:00:00 19,8 7,7 - - 5 3 S 1021,8 15 0,0
19.05.2018 18:00:00 21,8 9,4 - - 4 2 SSW 1022,0 18 0,0
19.05.2018 17:00:00 21,3 8,1 - - 5 3 ESE 1022,2 16 0,0
19.05.2018 16:00:00 21,1 7,3 - - 8 4 S 1022,7 17 0,0
19.05.2018 15:00:00 20,5 6,9 - - 5 3 ENE 1023,0 17 0,0
19.05.2018 14:00:00 20,6 8,6 - - 5 3 SW 1023,4 16 0,0
19.05.2018 13:00:00 20,3 8,2 - - 4 2 WSW 1024,0 15 0,0
19.05.2018 12:00:00 17,7 6,7 - - 4 2 SW 1024,4 14 0,0
19.05.2018 11:00:00 17,8 8,5 - - 4 2 SSW 1024,6 15 0,0
19.05.2018 10:00:00 15,4 8,7 12,0 10,5 4 2 SSE 1025,0 12 0,0
19.05.2018 09:00:00 12,8 7,6 - - 2 1 W 1025,2 13 0,0
19.05.2018 08:00:00 9,5 7,9 - - 2 1 WSW 1025,2 13 0,0
19.05.2018 07:00:00 6,6 6,4 - - 2 1 SSW 1024,9 10 0,0
19.05.2018 06:00:00 4,1 3,9 - - 2 1 SSW 1025,0 4,7 0,0
19.05.2018 05:00:00 4,5 4,3 - - 4 2 SW 1024,7 4,8 0,0
19.05.2018 04:00:00 4,7 4,3 - - 4 2 SW 1024,8 4,4 0,0
19.05.2018 03:00:00 5,8 5,3 - - 5 3 SW 1024,9 6 0,0
19.05.2018 02:00:00 6,5 5,5 - - 2 1 SSW 1025,1 4,9 0,0
19.05.2018 01:00:00 7,8 6,4 - - 2 1 E 1024,8 9 0,0
19.05.2018 00:00:00 8,3 6,7 - - 5 3 W 1024,8 11 0,0
18.05.2018 23:00:00 9,4 7,8 - - 2 1 NNE 1024,7 11 0,0
18.05.2018 22:00:00 10,7 8,5 - - 2 1 WNW 1024,7 10 0,0
18.05.2018 21:00:00 13,5 8,0 - - 0 0 N 1024,2 14 0,0
18.05.2018 20:00:00 17,5 8,6 - - 2 1 SW 1024,0 16 0,0
18.05.2018 19:00:00 18,1 6,6 - - 4 2 SSE 1024,0 17 0,0
18.05.2018 18:00:00 18,4 7,3 - - 4 2 NE 1024,1 19 0,0
18.05.2018 17:00:00 17,5 6,7 - - 2 1 E 1024,5 18 0,0
18.05.2018 16:00:00 18,3 6,9 - - 4 2 NE 1024,6 19 0,0
18.05.2018 15:00:00 18,3 7,0 - - 4 2 NW 1024,8 17 0,0
18.05.2018 14:00:00 17,2 6,8 - - 5 3 SW 1025,2 18 0,0
18.05.2018 13:00:00 16,8 7,3 - - 4 2 ENE 1025,8 18 0,0
18.05.2018 12:00:00 15,3 5,9 - - 4 2 E 1026,2 16 0,0
18.05.2018 11:00:00 14,3 5,4 - - 4 2 S 1026,6 17 0,0
18.05.2018 10:00:00 13,8 7,2 12,0 10,5 4 2 SSE 1026,8 17 0,0
18.05.2018 09:00:00 11,2 6,5 - - 2 1 ENE 1027,2 14 0,0
18.05.2018 08:00:00 9,1 6,3 - - 2 1 NE 1027,4 12 0,0
18.05.2018 07:00:00 5,8 5,8 - - 4 2 ENE 1027,5 10 0,0
18.05.2018 06:00:00 3,0 2,8 - - 0 0 N 1027,4 7 0,0
18.05.2018 05:00:00 3,0 2,8 - - 2 1 SW 1027,4 3,9 0,0
18.05.2018 04:00:00 3,6 3,2 - - 0 0 N 1027,6 6 0,0
18.05.2018 03:00:00 4,0 3,5 - - 2 1 W 1027,7 6 0,0
18.05.2018 02:00:00 5,2 4,2 - - 2 1 WNW 1027,8 10 0,0
18.05.2018 01:00:00 6,7 4,4 - - 4 2 ENE 1027,7 13 0,0
18.05.2018 00:00:00 7,9 5,0 - - 8 4 NE 1027,6 13 0,0
17.05.2018 23:00:00 7,7 4,1 - - 5 3 ENE 1027,4 11 0,0
17.05.2018 22:00:00 10,3 4,5 - - 5 3 NE 1027,2 15 0,0
17.05.2018 21:00:00 11,8 4,0 - - 5 3 ENE 1026,9 17 0,0
17.05.2018 20:00:00 14,7 4,3 - - 9 5 ENE 1026,7 19 0,0
17.05.2018 19:00:00 15,9 2,9 - - 9 5 E 1026,7 21 0,0
17.05.2018 18:00:00 15,9 1,5 - - 8 4 E 1026,8 22 0,0
17.05.2018 17:00:00 16,3 1,0 - - 8 4 ENE 1027,2 20 0,0
17.05.2018 16:00:00 16,0 2,0 - - 9 5 ENE 1027,4 25 0,0
17.05.2018 15:00:00 16,3 2,3 - - 9 5 NNE 1027,7 21 0,0
17.05.2018 14:00:00 15,3 1,3 - - 9 5 ENE 1028,3 21 0,0
17.05.2018 13:00:00 14,3 1,1 - - 11 6 ENE 1028,8 21 0,0
17.05.2018 12:00:00 13,1 3,1 - - 11 6 NNE 1029,3 20 0,0
17.05.2018 11:00:00 12,3 3,9 - - 11 6 NE 1029,6 19 0,0
17.05.2018 10:00:00 10,8 4,9 12,2 10,4 9 5 NE 1029,8 17 0,0
17.05.2018 09:00:00 8,9 4,3 - - 11 6 NNE 1030,2 16 0,0
17.05.2018 08:00:00 7,9 4,3 - - 9 5 NNE 1030,3 16 0,0
17.05.2018 07:00:00 6,8 3,9 - - 8 4 N 1030,3 16 0,0
17.05.2018 06:00:00 5,3 3,6 - - 4 2 N 1030,2 14 0,0
17.05.2018 05:00:00 4,1 3,1 - - 4 2 N 1030,2 13 0,0
17.05.2018 04:00:00 3,9 2,9 - - 4 2 NNE 1030,2 13 0,0
17.05.2018 03:00:00 4,2 2,8 - - 4 2 NNE 1030,5 15 0,0
17.05.2018 02:00:00 5,2 3,9 - - 4 2 NNE 1030,5 14 0,0
17.05.2018 01:00:00 6,1 4,0 - - 4 2 NNE 1030,7 12 0,0
17.05.2018 00:00:00 8,0 4,7 - - 5 3 NNE 1030,3 12 0,0
16.05.2018 23:00:00 9,1 4,8 - - 8 4 NNE 1030,0 15 0,0
16.05.2018 22:00:00 10,2 5,0 - - 11 6 NE 1029,4 17 0,0
16.05.2018 21:00:00 11,7 5,2 - - 11 6 NNE 1028,9 21 0,0
16.05.2018 20:00:00 13,4 5,7 - - 11 6 NNE 1028,6 22 0,0
16.05.2018 19:00:00 14,1 6,4 - - 11 6 NNE 1028,7 25 0,0
16.05.2018 18:00:00 13,9 6,3 - - 16 9 NE 1028,5 21 0,0
16.05.2018 17:00:00 14,6 8,0 - - 11 6 NE 1028,4 22 0,0
16.05.2018 16:00:00 13,9 8,6 - - 9 5 N 1028,7 19 0,0

tt = temperature
td = dewpoint
tt -20cm = temperature -20cm
tt -100cm = temperature -100cm
ff = wind speed
dd = wind direction
ppp = reduced air pressure
vv = visibility
rr = precipitation

Next stations